Location: Abbey Hill
(34.0751°N, 84.0688°W)
Time: 12:19:01
(UTC+00:00)

ISS - Pass Details

Date: 04 October 2021
Orbit: 417 x 423 km, 51.6° (Epoch: 26 October)

Event Time Altitude Azimuth Distance (km) Brightness Sun altitude
Rises 00:33:05 0° 324° (NW) 2,363 0.7 -16.5°
Reaches altitude 10° 00:35:27 10° 338° (NNW) 1,498 -0.6 -17.0°
Enters shadow 00:38:03 24° 29° (NNE) 918 -2.3 -17.5°
